Sioux Falls, SD

1:02 AM CDT on July 24, 2017 (GMT -0500)
Foss

Weather History for KFSD - March, 2014

Change the Weather History Date:

Monday, March 17, 2014

  Actual Average Record
Temperature  
Mean Temperature 43 °F 33 °F  
Max Temperature 56 °F 43 °F 80 °F (1894)
Min Temperature 30 °F 23 °F -8 °F (1902)
Degree Days  
Heating Degree Days 22 32  
Month to date heating degree days 665 597  
Since 1 July heating degree days 7012 6447  
Cooling Degree Days 0 0  
Month to date cooling degree days 0 0  
Year to date cooling degree days 0 0  
Moisture  
Dew Point 21 °F    
Average Humidity 47    
Maximum Humidity 58    
Minimum Humidity 35    
Precipitation  
Precipitation 0.00 in 0.06 in 0.70 in (1917)
Month to date precipitation 0.27 0.74  
Year to date precipitation 1.26 1.90  
Snow  
Snow 0.00 in 0.30 in 7.80 in (1951)
Month to date snowfall 2.9 5.1  
Since 1 July snowfall 37.1 36.6  
Snow Depth 0.00 in    
Sea Level Pressure  
Sea Level Pressure 29.55 in    
Wind  
Wind Speed 14 mph (South)    
Max Wind Speed 24 mph    
Max Gust Speed 31 mph    
Visibility 10 miles    
Events      
T = Trace of Precipitation, MM = Missing Value Source: NWS Daily Summary

Daily Weather History Graph

Daily Weather History Graph

Search for Another Location

Airport or City:

Trip Planner

Search our weather history database for the weather conditions in past years. The results will help you decide how hot, cold, wet, or windy it might be!

Date:

Astronomy

Mar. 17, 2014 Rise Set
Actual Time 7:35 AM CDT 7:35 PM CDT
Civil Twilight 7:06 AM CDT 8:04 PM CDT
Nautical Twilight 6:33 AM CDT 8:37 PM CDT
Astronomical Twilight 5:59 AM CDT 9:11 PM CDT
Moon 8:57 PM CDT (3/17) 7:49 AM CDT (3/17)
Length of Visible Light 12h 57m
Length of Day
12h 00m
Full, 99% of the Moon is Illuminated
Mar 17
Full
Mar 23
Last Quarter
Mar 30
New
Apr 7
First Quarter
Apr 15
Full

Hourly Weather History & Observations

Time (CDT) Temp. Windchill Dew Point Humidity Pressure Visibility Wind Dir Wind Speed Gust Speed Precip Events Conditions
12:56 AM 30.9 °F 19.4 °F 12.9 °F 47% 29.91 in 10.0 mi SSW 17.3 mph 26.5 mph N/A   Scattered Clouds
1:56 AM 30.9 °F 19.4 °F 12.9 °F 47% 29.87 in 10.0 mi South 17.3 mph 27.6 mph N/A   Clear
2:56 AM 30.0 °F 18.7 °F 12.9 °F 49% 29.81 in 10.0 mi SSW 16.1 mph 27.6 mph N/A   Overcast
3:56 AM 30.0 °F 17.9 °F 14.0 °F 51% 29.76 in 10.0 mi SSW 18.4 mph 26.5 mph N/A   Clear
4:56 AM 30.9 °F 18.7 °F 15.1 °F 52% 29.73 in 10.0 mi South 19.6 mph 26.5 mph N/A   Overcast
5:56 AM 32.0 °F 20.8 °F 16.0 °F 52% 29.69 in 10.0 mi South 17.3 mph 23.0 mph N/A   Overcast
6:56 AM 30.9 °F 18.7 °F 16.0 °F 54% 29.66 in 10.0 mi South 19.6 mph - N/A   Mostly Cloudy
7:56 AM 30.0 °F 19.5 °F 17.1 °F 59% 29.65 in 10.0 mi South 13.8 mph - N/A   Mostly Cloudy
8:56 AM 33.1 °F 23.4 °F 17.1 °F 52% 29.61 in 10.0 mi South 13.8 mph - N/A   Mostly Cloudy
9:56 AM 36.0 °F 26.7 °F 18.0 °F 48% 29.57 in 10.0 mi SSW 15.0 mph 26.5 mph N/A   Mostly Cloudy
10:56 AM 39.9 °F 31.4 °F 19.9 °F 45% 29.55 in 10.0 mi SSW 16.1 mph - N/A   Mostly Cloudy
11:56 AM 43.0 °F 36.0 °F 21.9 °F 43% 29.54 in 10.0 mi SSW 13.8 mph - N/A   Overcast
12:56 PM 48.0 °F - 24.1 °F 39% 29.49 in 10.0 mi South 12.7 mph - N/A   Overcast
1:56 PM 50.0 °F - 25.0 °F 38% 29.47 in 10.0 mi SSE 13.8 mph - N/A   Overcast
2:56 PM 53.1 °F - 26.1 °F 35% 29.42 in 10.0 mi SSE 12.7 mph - N/A   Overcast
3:56 PM 54.0 °F - 27.0 °F 35% 29.41 in 10.0 mi South 17.3 mph 21.9 mph N/A   Overcast
4:56 PM 54.0 °F - 27.0 °F 35% 29.39 in 10.0 mi SSE 12.7 mph 19.6 mph N/A   Overcast
5:56 PM 53.1 °F - 27.0 °F 37% 29.37 in 10.0 mi SSE 17.3 mph - N/A   Mostly Cloudy
6:56 PM 51.1 °F - 27.0 °F 39% 29.36 in 10.0 mi SE 11.5 mph - N/A   Mostly Cloudy
7:56 PM 48.9 °F - 27.0 °F 43% 29.35 in 10.0 mi SE 12.7 mph - N/A   Overcast
8:56 PM 48.9 °F - 27.0 °F 43% 29.36 in 10.0 mi ESE 10.4 mph - N/A   Overcast
9:56 PM 44.1 °F 38.6 °F 30.0 °F 58% 29.37 in 10.0 mi East 10.4 mph - N/A   Overcast
10:56 PM 44.1 °F 39.0 °F 28.9 °F 55% 29.36 in 10.0 mi SE 9.2 mph - N/A   Overcast
11:56 PM 45.0 °F 41.2 °F 28.0 °F 52% 29.37 in 10.0 mi ESE 6.9 mph - N/A   Overcast